{"data":{"norad_id":52878,"epoch":"2026-09-19T13:44:31.347456Z","epoch_age_seconds":148958,"freshness":"FRESH","line1":"1 52878U 22062BA  26262.57258504  .00000986  00000+0  40332-4 0  9994","line2":"2 52878  53.1588 207.7200 0001354  92.4946 267.6212 15.34386139235556","mean_motion":15.34386139,"eccentricity":0.0001354,"inclination_deg":53.1588,"raan_deg":207.72,"arg_perigee_deg":92.4946,"mean_anomaly_deg":267.6212,"bstar":4.0332e-5,"rev_number":23555,"period_min":93.848605862569,"perigee_km":461.81818298356,"apogee_km":463.67069367706,"semimajor_km":6840.8814383303,"source":"CELESTRAK","updated_at":"2026-09-20T09:00:40.137698Z"}}